This is the latest recevied weather packets stored in our database for station/object VA3JLF-1. If no packets are shown the sender has not sent any weather packets the latest 10 day(s).
| Time | Temp. | Humidity | Pressure | Rain* | Wind** | Luminosity | Snow |
|---|---|---|---|---|---|---|---|
| 1778164749 | 10° C | 63% | 1008.6 hPa | 0 mm | - | - | - |
| 1778164148 | 10° C | 65% | 1008.8 hPa | 0 mm | - | - | - |
| 1778163548 | 10° C | 59% | 1008.7 hPa | 0 mm | - | - | - |
| 1778162348 | 10° C | 57% | 1008.7 hPa | 0 mm | - | - | - |
| 1778161750 | 10° C | 59% | 1009 hPa | 0 mm | - | - | - |
| 1778160549 | 8.33° C | 56% | 1009.1 hPa | 0 mm | - | - | - |
| 1778159949 | 7.78° C | 57% | 1009.2 hPa | 0 mm | - | - | - |
| 1778159349 | 7.78° C | 65% | 1009.1 hPa | 0 mm | - | - | - |
| 1778158748 | 7.22° C | 62% | 1009 hPa | 0 mm | - | - | - |
| 1778158151 | 6.67° C | - | - | - | - | - | - |
| 1778158148 | 6.67° C | 70% | 1009.1 hPa | 0 mm | - | - | - |
| 1778157548 | 5.56° C | 69% | 1009.1 hPa | 0 mm | - | - | - |
| 1778156969 | 5.56° C | - | - | - | - | - | - |
| 1778156949 | 5.56° C | 67% | 1009.2 hPa | 0 mm | - | - | - |
| 1778156349 | 5.56° C | 71% | 1009.1 hPa | 0 mm | - | - | - |
| 1778155748 | 5.56° C | 70% | 1009.3 hPa | 0 mm | - | - | - |
| 1778155149 | 5.56° C | 72% | 1009.2 hPa | 0 mm | - | - | - |
| 1778154548 | 5.56° C | 72% | 1009.1 hPa | 0 mm | - | - | - |
| 1778153948 | 5.56° C | 74% | 1009.2 hPa | 0 mm | - | - | - |
| 1778153348 | 5.56° C | 74% | 1008.9 hPa | 0 mm | - | - | - |
| 1778152748 | 5.56° C | 73% | 1009.2 hPa | 0 mm | - | - | - |
| 1778152148 | 5.56° C | 73% | 1009 hPa | 0 mm | - | - | - |
| 1778151548 | 5.56° C | 76% | 1008.8 hPa | 0 mm | - | - | - |
| 1778150948 | 5° C | 74% | 1008.9 hPa | 0 mm | - | - | - |
| 1778150349 | 5.56° C | 76% | 1008.7 hPa | 0 mm | - | - | - |
* Rain latest hour (hover to see other rain measurements)
** Current wind speed in m/s (hover to see current wind gust speed)